Temperature
18 18 18 18 18 18 18 18 18 18 18 18 18 19 18 18 18 19 18 18 18 18 18 18 18 18 17 17 17 17 17 17 17 17 17 17 17 17 16 16 16 16 16
18 18 18 18 18 18 18 18 18 18 18 18 18 18 18 18 18 18 18 18 18 18 18 18 18 18 18 18 17 17 17 17 17 17 17 17 17 17 16 16 16 16 16
18 18 18 18 18 18 18 18 18 19 18 18 18 18 18 18 18 18 18 18 18 18 18 18 18 18 18 17 17 17 17 17 17 17 17 17 17 16 16 16 16 16 16
18 18 18 18 18 18 18 18 18 18 18 19 19 19 18 18 18 18 18 18 18 18 18 18 18 18 18 18 17 17 17 17 17 17 17 17 16 16 16 16 16 16 16
18 18 18 18 18 18 18 18 18 18 19 19 19 19 19 18 18 18 18 18 18 18 18 18 18 18 17 17 17 17 17 17 17 17 17 16 16 16 16 16 16 16 16
18 18 18 18 18 18 18 18 18 18 19 19 19 19 19 19 18 18 18 18 18 18 18 18 18 17 17 17 17 17 17 17 17 17 17 16 16 16 16 16 16 16 16
18 18 18 18 18 18 18 18 18 18 18 18 18 18 19 19 19 18 18 18 18 18 18 18 18 17 17 17 17 17 17 17 17 17 16 16 16 16 16 16 16 16 16
18 18 18 18 18 18 18 18 18 18 18 18 18 18 18 19 19 19 19 18 18 18 18 18 17 17 17 17 17 17 17 16 16 16 16 16 16 16 16 16 16 15 15
19 18 18 18 18 18 18 18 18 18 18 18 18 18 18 18 18 19 19 18 18 18 18 18 18 17 17 17 17 17 16 16 16 16 16 16 16 16 16 16 16 15 15
19 18 18 18 18 18 18 18 18 18 18 18 18 18 18 18 18 18 18 18 18 18 18 18 17 17 17 17 17 17 16 16 16 16 16 16 16 16 16 15 15 15 15
19 19 19 18 18 18 18 18 18 18 18 18 18 18 18 18 18 18 18 18 18 18 18 18 17 17 17 17 17 17 16 16 16 16 16 16 16 16 16 15 15 15 15
19 19 19 19 19 18 18 18 18 18 18 18 18 18 18 18 18 18 18 18 18 18 18 18 17 17 17 17 17 16 16 16 16 16 16 16 16 16 16 15 15 15 15
19 19 19 19 19 19 18 18 18 18 18 18 18 18 18 18 18 18 18 18 18 17 17 17 17 17 17 17 17 17 16 16 16 16 16 16 15 15 15 15 15 15 15
19 19 19 19 19 19 18 18 18 18 18 18 18 18 18 18 18 17 17 17 17 17 17 17 17 17 17 17 16 16 16 16 16 16 16 15 15 15 15 15 15 15 15
19 19 19 19 19 18 18 18 18 17 17 18 18 17 17 17 17 17 17 17 17 17 17 17 16 16 16 16 16 16 16 16 16 16 15 15 15 15 15 15 15 15 14
19 19 19 19 19 18 18 18 18 18 18 18 18 17 17 17 17 17 17 17 17 17 16 16 16 16 16 16 16 16 16 16 15 15 15 15 15 15 15 15 14 14 14
19 19 19 19 18 18 18 18 18 17 17 17 17 17 17 17 17 17 17 16 16 16 16 16 16 16 16 16 16 15 15 15 15 15 15 15 15 15 14 14 14 14 14
19 19 19 18 18 18 18 18 18 17 17 17 17 17 17 17 17 16 16 16 16 16 16 16 16 15 15 15 15 15 15 15 15 15 14 14 14 14 14 14 14 14 14
19 19 19 18 18 18 18 18 17 17 17 17 17 16 16 16 16 16 16 16 16 16 16 16 15 15 15 15 15 15 14 14 14 14 14 14 14 14 14 14 14 14 14
19 18 18 18 18 18 18 17 17 17 17 17 16 16 16 16 16 16 16 16 16 16 15 15 15 15 15 15 14 14 14 14 14 14 13 14 14 14 13 14 13 13 13
18 18 18 18 18 17 17 17 17 17 17 16 16 16 16 16 16 16 16 16 15 15 15 15 15 14 14 14 14 14 14 13 13 13 13 13 13 13 13 13 13 13 13
18 18 18 18 17 17 17 17 17 17 16 16 16 16 16 16 16 16 16 15 15 15 15 15 14 14 14 14 14 13 13 13 13 13 13 13 13 13 13 13 13 13 13
18 18 18 17 17 17 17 17 17 16 16 16 16 16 15 15 15 15 15 15 15 15 15 14 14 14 14 14 13 13 13 13 13 13 13 13 13 12 12 12 13 13 13
17 17 17 17 17 17 17 17 16 16 16 16 15 15 15 15 15 15 15 15 15 15 14 14 14 14 14 14 13 13 13 13 13 13 12 12 12 12 12 12 12 12 12
17 17 17 17 17 17 17 16 16 16 16 15 15 15 15 15 15 15 15 14 14 14 14 14 14 14 14 14 13 13 13 12 12 12 12 12 12 12 12 12 12 12 12
17 17 17 17 17 17 16 16 16 15 15 15 15 15 15 15 15 14 14 14 14 14 14 14 14 14 14 13 13 13 13 12 12 12 12 12 12 12 11 12 12 12 12
Wind_Speed
4 3 2 1 1 3 2 1 2 2 1 0 1 1 2 2 4 6 8 12 11 9 8 8 7 7 6 6 6 6 7 7 8 8 8 9 9 10 10 10 10 10 10
3 2 2 1 2 3 3 1 1 2 1 1 1 1 1 1 3 5 7 9 10 10 9 8 7 7 6 6 6 6 6 6 8 8 8 9 9 9 10 11 11 11 11
3 2 2 1 1 1 2 1 1 1 1 1 1 0 1 1 2 3 5 7 8 10 10 9 9 8 7 7 6 6 6 6 6 6 7 8 8 9 9 10 11 11 11
3 2 2 1 0 0 1 1 1 1 1 1 0 0 0 1 1 2 3 5 6 7 9 11 11 10 9 8 7 7 6 6 6 6 7 7 7 8 8 9 10 11 11
2 1 1 1 0 0 1 1 2 1 1 1 1 1 1 1 2 1 2 3 5 6 7 10 12 11 10 9 8 8 7 7 7 7 7 7 7 8 8 8 9 9 10
2 1 1 1 0 1 1 2 2 1 1 1 2 1 1 1 2 1 2 2 3 5 6 7 9 10 12 10 9 9 8 7 7 7 7 7 7 7 8 8 9 9 9
1 1 2 1 0 1 1 1 1 2 1 0 1 1 2 2 2 2 2 2 2 3 4 6 6 6 8 10 10 10 9 7 7 7 7 7 7 7 8 8 9 9 8
1 1 0 1 1 1 0 1 1 2 2 1 1 1 1 1 1 2 2 2 2 2 3 4 5 5 4 5 6 8 7 7 6 6 6 7 7 7 7 8 9 9 9
2 1 0 1 1 1 1 1 1 2 2 2 1 1 1 1 1 1 1 1 1 1 1 2 4 5 4 4 6 6 6 5 5 6 5 5 6 7 7 8 9 9 9
2 2 1 1 1 1 0 1 0 2 2 3 2 1 1 1 1 1 1 1 1 1 0 0 1 4 4 4 5 6 7 6 5 5 5 5 5 6 7 8 8 9 8
2 2 2 1 1 1 1 1 1 2 2 2 2 2 2 2 3 2 2 2 1 1 1 1 1 2 4 5 5 6 7 6 5 4 4 4 4 5 6 7 7 8 8
3 3 2 1 1 1 1 1 2 3 2 2 3 3 2 2 2 2 3 2 1 1 2 1 1 1 3 4 4 6 7 6 5 5 4 4 4 5 5 6 7 7 7
2 2 2 2 1 1 2 1 2 2 2 2 3 3 3 3 2 2 2 2 2 2 1 1 0 1 2 4 5 5 6 6 6 5 5 5 5 5 6 6 6 6 6
1 2 2 2 2 2 2 1 2 2 1 2 3 3 3 3 2 2 2 2 2 2 1 0 0 1 2 3 4 5 4 7 7 7 6 5 5 5 6 6 7 7 7
2 2 2 2 2 2 1 1 1 2 2 2 3 3 2 3 3 2 2 1 2 3 2 1 0 1 1 3 4 4 3 6 8 8 7 6 5 6 6 6 7 7 7
1 0 1 1 1 1 1 1 2 1 1 1 2 3 3 3 2 2 2 2 2 2 2 1 1 0 1 1 3 3 3 4 6 8 8 7 7 6 6 6 7 7 7
2 1 1 1 1 1 1 1 2 2 1 2 2 2 3 3 3 3 2 2 2 1 2 2 0 1 1 1 1 1 3 4 4 6 8 8 7 6 6 6 6 7 8
3 2 2 2 2 1 2 2 2 2 2 2 2 2 3 3 3 3 3 3 2 2 2 2 1 0 1 1 1 1 1 2 2 4 5 6 6 6 7 7 7 7 8
2 2 2 2 2 1 1 1 1 2 2 1 2 2 2 3 3 3 3 3 2 2 1 1 2 1 1 1 1 1 1 0 2 3 4 5 6 6 7 7 7 7 8
3 2 2 2 2 1 1 1 1 1 1 1 1 2 2 2 3 4 3 3 3 2 2 2 1 1 1 0 0 1 1 1 1 2 2 4 5 6 6 7 7 8 8
3 2 2 2 2 2 2 1 2 2 1 1 1 2 2 2 3 3 3 2 3 2 2 2 2 1 1 1 1 1 2 2 1 1 1 2 3 4 4 6 8 9 9
2 2 2 2 2 2 1 1 2 1 1 2 2 2 2 1 1 1 2 1 1 2 2 2 2 2 2 2 2 2 2 2 3 1 1 3 2 3 4 5 7 9 9
3 3 2 2 1 0 1 1 2 2 2 2 2 3 4 2 1 2 3 3 3 3 3 3 3 3 2 2 2 2 2 2 3 3 2 3 2 2 3 5 8 10 9
2 2 2 2 2 2 1 0 2 3 2 2 2 3 2 2 3 3 3 2 2 3 4 3 3 4 3 2 3 3 3 2 3 2 2 3 2 2 3 3 9 11 10
3 3 3 3 2 2 3 2 2 3 3 3 2 2 2 2 2 3 2 3 3 3 4 3 5 5 5 4 3 2 2 2 3 3 2 1 2 2 2 2 5 10 11
3 3 3 3 3 3 4 4 3 3 3 3 2 2 1 1 2 2 3 3 4 4 4 4 4 4 4 4 4 4 3 3 3 2 2 1 2 2 2 1 2 4 6
Wind_Direction
67 79 75 46 88 109 115 47 83 107 90 52 112 122 118 131 136 133 145 161 165 170 178 184 192 201 208 212 214 214 217 222 224 226 228 231 231 229 226 224 221 218 218
70 77 86 49 35 61 68 57 85 90 97 108 93 95 107 85 110 132 145 162 172 175 179 188 196 200 202 205 210 215 218 225 227 229 232 231 231 227 222 221 220 217 217
74 70 68 62 46 79 115 119 71 107 144 127 120 95 112 122 109 129 151 162 173 184 185 189 191 193 197 204 214 218 220 225 226 228 232 230 227 225 225 222 220 217 217
70 74 68 61 355 68 86 102 82 42 32 35 52 229 150 163 183 164 155 164 176 177 186 193 191 194 198 204 209 214 217 222 225 227 226 226 224 223 225 227 225 222 220
75 59 78 66 243 15 21 31 60 31 355 6 285 216 203 199 202 204 184 184 180 168 173 188 195 197 202 207 210 214 217 222 225 228 230 229 227 223 224 225 222 218 215
102 327 184 110 304 32 26 37 18 319 288 301 319 353 256 203 198 185 213 192 184 181 169 175 186 200 206 208 211 213 217 223 228 233 236 233 232 228 225 222 215 210 210
160 208 338 83 314 75 45 22 352 314 287 295 335 297 270 222 197 193 201 197 191 177 165 168 175 177 188 206 212 215 217 221 228 233 237 236 236 232 224 217 206 202 204
202 198 191 316 359 81 259 282 306 303 304 312 283 287 290 292 306 226 196 203 199 179 173 176 160 164 172 169 191 209 216 220 226 233 236 236 233 232 226 217 204 202 204
197 292 313 309 321 249 203 243 295 297 300 306 304 302 295 308 313 274 257 211 173 137 185 172 168 164 175 166 170 189 199 205 220 230 233 233 231 232 227 214 204 202 203
195 194 229 262 297 303 269 268 39 293 294 295 295 261 250 250 253 283 279 262 196 147 241 279 154 157 171 156 154 171 185 194 212 223 225 227 225 223 217 209 201 200 201
200 206 201 184 265 290 295 312 320 299 297 300 302 299 287 265 250 247 274 274 260 202 198 194 123 164 170 158 150 159 179 190 201 215 221 220 220 215 206 202 199 198 199
200 198 197 183 213 259 278 282 284 282 285 302 304 302 299 299 293 275 278 281 277 259 224 181 182 159 144 139 144 157 172 181 193 204 205 203 203 197 195 195 196 197 195
186 191 199 174 204 247 261 267 278 294 301 302 290 291 297 293 292 291 284 290 297 281 252 205 176 116 123 123 133 157 170 177 185 195 201 201 197 199 197 194 191 192 194
192 172 183 176 202 237 262 251 264 284 308 295 292 298 299 301 301 292 289 290 295 296 307 310 42 74 83 118 140 163 170 186 189 192 196 197 201 205 199 192 191 194 194
228 173 181 190 210 232 262 273 289 311 323 306 309 305 297 293 293 309 308 295 281 289 293 314 1 37 102 115 142 156 165 187 196 194 195 194 194 198 202 194 194 192 191
279 219 196 198 212 225 239 245 283 288 290 309 309 325 322 316 326 320 310 310 294 274 282 315 336 8 27 58 127 154 166 171 192 195 195 195 198 202 197 196 196 195 195
233 219 220 222 225 221 225 235 247 280 290 294 297 304 308 314 322 317 315 310 299 284 278 302 268 55 40 13 56 198 186 170 178 184 189 193 195 197 193 194 200 204 203
216 220 222 227 238 226 218 231 256 275 271 280 284 297 306 304 310 311 315 311 306 293 270 276 291 306 291 261 248 255 234 178 158 178 186 187 193 200 200 202 206 208 210
217 222 222 230 237 237 229 232 247 268 277 290 304 304 306 315 315 309 300 305 302 307 309 280 279 300 286 280 316 300 330 156 213 196 189 196 198 203 202 206 209 210 215
205 209 221 228 231 226 237 237 222 242 276 288 313 318 319 321 318 308 295 301 308 318 321 305 274 282 310 323 277 290 305 291 266 255 203 196 198 206 211 216 215 212 212
215 202 210 219 232 226 239 249 243 224 239 279 294 297 325 358 352 325 316 325 327 326 318 302 287 283 308 345 296 277 293 295 281 264 244 223 199 203 206 222 220 214 210
207 203 208 223 240 246 31 34 325 279 249 262 279 288 258 264 323 302 280 281 290 296 307 296 292 300 296 292 298 293 296 301 293 276 260 260 231 223 205 203 206 201 204
202 212 213 204 199 128 69 44 343 276 274 275 280 282 287 294 300 280 265 241 246 251 245 261 288 285 290 300 286 289 291 284 288 278 274 273 247 244 217 217 201 196 198
201 205 211 212 197 217 205 262 313 255 262 266 280 293 300 303 307 315 289 280 266 269 258 251 259 271 276 279 268 250 259 275 286 285 263 278 283 268 268 216 199 193 198
196 205 198 203 203 205 204 217 266 259 257 263 262 291 307 313 324 332 295 288 288 282 281 274 268 258 256 262 264 259 258 274 291 296 290 287 295 290 274 253 204 198 201
201 216 211 204 207 206 209 216 235 261 261 263 255 260 308 301 310 312 286 278 275 286 292 290 279 262 247 238 241 235 239 249 270 285 279 263 293 301 290 250 203 195 204
Height
1538 1538 1539 1539 1540 1541 1541 1541 1542 1542 1543 1543 1544 1544 1545 1545 1545 1545 1545 1545 1545 1545 1545 1546 1546 1546 1546 1546 1546 1547 1547 1547 1548 1548 1548 1548 1549 1549 1550 1550 1551 1552 1553
1539 1540 1540 1540 1541 1542 1542 1542 1543 1543 1543 1543 1544 1544 1544 1544 1544 1544 1544 1544 1544 1544 1545 1544 1544 1544 1544 1544 1545 1545 1545 1545 1545 1546 1546 1546 1546 1546 1547 1548 1549 1549 1551
1540 1541 1541 1542 1542 1543 1543 1543 1543 1543 1543 1544 1544 1544 1544 1544 1544 1544 1544 1544 1543 1544 1543 1543 1543 1543 1543 1543 1543 1543 1543 1543 1543 1543 1543 1543 1543 1544 1544 1545 1546 1547 1548
1541 1542 1542 1543 1543 1544 1544 1544 1544 1544 1544 1544 1543 1543 1544 1543 1543 1543 1543 1543 1543 1542 1542 1542 1542 1542 1542 1541 1541 1541 1541 1541 1541 1541 1541 1541 1541 1541 1542 1542 1543 1544 1545
1542 1542 1543 1543 1544 1544 1544 1544 1544 1544 1543 1543 1543 1543 1543 1543 1543 1543 1542 1542 1542 1541 1541 1541 1541 1541 1540 1540 1540 1539 1539 1539 1539 1538 1538 1538 1539 1539 1539 1540 1540 1541 1542
1542 1543 1543 1544 1544 1544 1544 1544 1544 1544 1543 1543 1542 1542 1542 1542 1542 1541 1541 1541 1540 1540 1540 1540 1539 1539 1539 1538 1538 1538 1537 1537 1537 1536 1536 1536 1536 1536 1536 1537 1537 1538 1539
1543 1543 1543 1544 1544 1544 1543 1543 1543 1543 1543 1542 1542 1541 1541 1541 1541 1540 1540 1540 1540 1539 1539 1538 1538 1538 1537 1537 1536 1536 1535 1535 1534 1534 1533 1533 1533 1533 1533 1534 1534 1535 1536
1542 1543 1543 1543 1543 1543 1543 1543 1542 1542 1542 1542 1541 1540 1540 1541 1540 1539 1539 1539 1539 1538 1538 1537 1537 1536 1535 1534 1534 1533 1533 1532 1532 1531 1530 1530 1530 1530 1530 1531 1531 1532 1533
1542 1542 1542 1542 1542 1542 1542 1542 1542 1541 1541 1541 1541 1541 1540 1539 1539 1539 1538 1538 1537 1537 1536 1536 1535 1534 1533 1532 1531 1531 1530 1530 1529 1528 1528 1527 1527 1527 1527 1528 1528 1530 1530
1541 1541 1541 1541 1541 1541 1541 1541 1540 1540 1540 1540 1539 1539 1540 1539 1538 1538 1538 1537 1536 1535 1535 1534 1533 1532 1531 1530 1529 1528 1528 1527 1526 1525 1525 1524 1524 1523 1524 1525 1526 1527 1528
1541 1541 1541 1540 1540 1540 1540 1540 1539 1539 1539 1538 1538 1538 1538 1537 1537 1537 1536 1535 1535 1534 1533 1532 1531 1530 1529 1528 1527 1526 1525 1525 1524 1523 1522 1521 1521 1521 1521 1522 1523 1524 1525
1540 1540 1540 1539 1539 1539 1538 1538 1538 1538 1537 1537 1537 1537 1536 1536 1535 1535 1534 1533 1533 1532 1531 1530 1529 1528 1527 1526 1525 1524 1523 1522 1521 1520 1519 1519 1518 1518 1519 1520 1521 1522 1523
1539 1539 1539 1538 1538 1537 1537 1537 1536 1536 1536 1535 1535 1535 1535 1534 1534 1533 1533 1532 1531 1530 1529 1529 1528 1527 1525 1524 1523 1522 1521 1520 1519 1518 1517 1517 1517 1517 1517 1518 1519 1519 1520
1538 1538 1538 1537 1537 1536 1536 1535 1535 1535 1534 1534 1533 1533 1533 1532 1532 1531 1531 1530 1529 1528 1527 1527 1526 1525 1524 1523 1521 1520 1518 1517 1516 1516 1515 1515 1515 1515 1515 1516 1517 1517 1518
1537 1537 1536 1536 1535 1535 1534 1534 1533 1533 1533 1532 1531 1531 1531 1531 1530 1529 1529 1529 1529 1527 1526 1525 1524 1523 1522 1521 1519 1518 1517 1516 1514 1514 1513 1513 1513 1513 1513 1514 1515 1515 1516
1535 1535 1535 1534 1534 1533 1533 1532 1532 1531 1531 1530 1530 1529 1529 1529 1528 1527 1527 1526 1526 1526 1524 1524 1523 1521 1520 1519 1518 1516 1515 1513 1512 1512 1511 1511 1511 1511 1511 1512 1512 1513 1513
1533 1533 1533 1533 1532 1532 1531 1531 1530 1530 1529 1529 1528 1528 1527 1526 1526 1525 1525 1524 1524 1524 1522 1521 1521 1520 1519 1517 1516 1514 1513 1512 1511 1510 1510 1510 1509 1509 1509 1509 1510 1510 1511
1531 1531 1531 1531 1531 1530 1530 1529 1529 1528 1528 1527 1527 1526 1525 1525 1524 1523 1523 1522 1522 1521 1521 1519 1519 1518 1517 1516 1515 1513 1512 1511 1509 1509 1508 1508 1507 1507 1507 1507 1507 1508 1508
1529 1529 1529 1529 1529 1529 1528 1528 1527 1527 1526 1525 1525 1524 1523 1523 1521 1521 1520 1520 1519 1519 1519 1518 1516 1516 1515 1514 1513 1512 1511 1509 1508 1507 1506 1506 1505 1505 1505 1505 1505 1505 1505
1527 1527 1527 1527 1527 1527 1526 1526 1525 1525 1524 1523 1523 1522 1521 1520 1519 1519 1518 1517 1517 1517 1516 1515 1515 1514 1513 1512 1511 1510 1508 1508 1507 1506 1505 1504 1503 1503 1502 1502 1502 1502 1503
1525 1525 1525 1524 1525 1524 1524 1523 1523 1523 1522 1521 1520 1520 1519 1519 1518 1517 1516 1515 1515 1514 1513 1513 1513 1512 1511 1510 1509 1508 1506 1505 1504 1504 1502 1501 1501 1500 1499 1499 1499 1499 1500
1522 1522 1522 1522 1522 1522 1522 1522 1521 1520 1520 1519 1518 1518 1517 1516 1515 1515 1514 1513 1513 1512 1511 1511 1510 1509 1508 1508 1507 1506 1505 1503 1501 1502 1500 1499 1498 1497 1497 1496 1496 1496 1496
1519 1519 1520 1520 1520 1520 1520 1519 1519 1518 1517 1517 1516 1516 1515 1514 1513 1512 1511 1511 1510 1510 1509 1509 1508 1507 1506 1506 1504 1503 1502 1501 1499 1498 1498 1496 1496 1495 1494 1493 1493 1493 1493
1517 1517 1517 1517 1517 1517 1517 1517 1516 1516 1515 1514 1514 1513 1512 1511 1511 1510 1509 1508 1507 1507 1507 1506 1505 1505 1504 1504 1502 1501 1500 1498 1497 1496 1495 1494 1492 1492 1491 1490 1490 1490 1490
1514 1514 1514 1514 1514 1514 1514 1514 1514 1513 1513 1512 1511 1511 1510 1509 1508 1507 1506 1505 1505 1504 1504 1503 1503 1502 1502 1501 1500 1499 1497 1496 1494 1493 1493 1491 1490 1489 1488 1487 1487 1487 1487
1511 1511 1511 1511 1511 1511 1511 1511 1511 1510 1509 1509 1508 1508 1507 1506 1505 1504 1503 1502 1501 1501 1501 1500 1500 1499 1498 1498 1497 1496 1495 1493 1491 1490 1490 1489 1487 1487 1485 1484 1484 1484 1483